Warroad, MN

5:40 PM CST on December 04, 2016 (GMT -0600)
Warroad International-Carlson

Weather History for KRRT - December, 2011

Change the Weather History Date:

Saturday, December 10, 2011

  Actual Average Record
Temperature  
Mean Temperature 19 °F -  
Max Temperature 28 °F 19 °F 47 °F (1990)
Min Temperature 10 °F 0 °F -34 °F (1948)
Degree Days  
Heating Degree Days 46    
Moisture  
Dew Point 8 °F    
Average Humidity 63    
Maximum Humidity 74    
Minimum Humidity 57    
Precipitation  
Precipitation 0.00 in - - ()
Sea Level Pressure  
Sea Level Pressure 29.97 in    
Wind  
Wind Speed 6 mph (SSW)    
Max Wind Speed 10 mph    
Max Gust Speed -    
Visibility 10 miles    
Events Snow    
Averages and records for this station are not official NWS values.
T = Trace of Precipitation, MM = Missing Value Source: NWS Daily Summary

Daily Weather History Graph

Daily Weather History Graph

Search for Another Location

Airport or City:

Trip Planner

Search our weather history database for the weather conditions in past years. The results will help you decide how hot, cold, wet, or windy it might be!

Date:

Astronomy

Dec. 10, 2011 Rise Set
Actual Time 8:03 AM CST 4:24 PM CST
Civil Twilight 7:26 AM CST 5:01 PM CST
Nautical Twilight 6:46 AM CST 5:41 PM CST
Astronomical Twilight 6:08 AM CST 6:19 PM CST
Moon 4:37 PM CST (12/10) 8:06 AM CST (12/10)
Length of Visible Light 9h 34m
Length of Day
8h 20m
Full, 100% of the Moon is Illuminated
Dec 10
Full
Dec 17
Last Quarter
Dec 24
New
Jan 1
First Quarter
Jan 9
Full

Hourly Weather History & Observations

Time (CST) Temp. Windchill Dew Point Humidity Pressure Visibility Wind Dir Wind Speed Gust Speed Precip Events Conditions
12:14 AM 10.4 °F -0.4 °F -2.2 °F 57% 30.09 in 10.0 mi SSW 6.9 mph - N/A   Scattered Clouds
12:34 AM 10.4 °F -1.5 °F -2.2 °F 57% 30.08 in 10.0 mi SSW 8.1 mph - N/A   Scattered Clouds
12:53 AM 10.4 °F -0.4 °F -2.2 °F 57% 30.07 in 10.0 mi SSW 6.9 mph - N/A   Scattered Clouds
1:14 AM 10.4 °F 2.2 °F -2.2 °F 57% 30.06 in 10.0 mi South 4.6 mph - N/A   Mostly Cloudy
1:33 AM 10.4 °F 4.0 °F -0.4 °F 62% 30.04 in 10.0 mi South 3.5 mph - N/A   Mostly Cloudy
1:54 AM 12.2 °F 2.9 °F -0.4 °F 57% 30.03 in 10.0 mi South 5.8 mph - N/A   Mostly Cloudy
2:14 AM 12.2 °F 1.7 °F -0.4 °F 57% 30.03 in 10.0 mi South 6.9 mph - N/A   Mostly Cloudy
2:33 AM 12.2 °F 2.9 °F -0.4 °F 57% 30.03 in 10.0 mi South 5.8 mph - N/A   Overcast
2:54 AM 12.2 °F 1.7 °F -0.4 °F 57% 30.02 in 10.0 mi South 6.9 mph - N/A   Overcast
3:14 AM 12.2 °F 2.9 °F 1.4 °F 62% 30.01 in 10.0 mi South 5.8 mph - N/A   Overcast
3:34 AM 12.2 °F 2.9 °F 1.4 °F 62% 30.00 in 10.0 mi South 5.8 mph - N/A   Overcast
3:54 AM 12.2 °F -1.0 °F 1.4 °F 62% 29.98 in 10.0 mi South 10.4 mph - N/A Snow Light Snow
4:14 AM 14.0 °F 2.0 °F 3.2 °F 62% 29.97 in 10.0 mi South 9.2 mph - N/A   Overcast
4:34 AM 14.0 °F 5.1 °F 3.2 °F 62% 29.97 in 10.0 mi South 5.8 mph - N/A   Overcast
4:54 AM 14.0 °F 3.9 °F 3.2 °F 62% 29.96 in 10.0 mi South 6.9 mph - N/A   Overcast
5:14 AM 15.8 °F 5.1 °F 3.2 °F 58% 29.95 in 10.0 mi South 8.1 mph - N/A   Overcast
5:34 AM 15.8 °F 6.1 °F 3.2 °F 58% 29.95 in 10.0 mi South 6.9 mph - N/A   Overcast
5:54 AM 15.8 °F 7.2 °F 5.0 °F 62% 29.94 in 10.0 mi South 5.8 mph - N/A   Overcast
6:14 AM 15.8 °F 7.2 °F 5.0 °F 62% 29.95 in 10.0 mi SSW 5.8 mph - N/A   Overcast
6:34 AM 15.8 °F - 6.8 °F 68% 29.96 in 10.0 mi Calm Calm - N/A   Overcast
6:54 AM 15.8 °F 10.2 °F 6.8 °F 68% 29.96 in 10.0 mi SW 3.5 mph - N/A   Overcast
7:14 AM 17.6 °F 10.7 °F 6.8 °F 63% 29.95 in 10.0 mi SSW 4.6 mph - N/A   Overcast
7:34 AM 17.6 °F 12.3 °F 6.8 °F 63% 29.95 in 10.0 mi SSW 3.5 mph - N/A   Overcast
7:54 AM 17.6 °F 10.7 °F 6.8 °F 63% 29.95 in 10.0 mi SW 4.6 mph - N/A   Overcast
8:14 AM 17.6 °F 9.3 °F 8.6 °F 68% 29.95 in 10.0 mi SSW 5.8 mph - N/A   Overcast
8:34 AM 17.6 °F 6.4 °F 8.6 °F 68% 29.96 in 10.0 mi SW 9.2 mph - N/A   Overcast
8:54 AM 17.6 °F 8.2 °F 8.6 °F 68% 29.96 in 10.0 mi SW 6.9 mph - N/A   Overcast
9:13 AM 17.6 °F 8.2 °F 8.6 °F 68% 29.96 in 10.0 mi SW 6.9 mph - N/A   Overcast
9:34 AM 17.6 °F 9.3 °F 8.6 °F 68% 29.97 in 10.0 mi SSW 5.8 mph - N/A   Mostly Cloudy
9:54 AM 17.6 °F 10.7 °F 8.6 °F 68% 29.97 in 10.0 mi SSW 4.6 mph - N/A   Clear
10:14 AM 19.4 °F 12.8 °F 8.6 °F 63% 29.97 in 10.0 mi SSW 4.6 mph - N/A   Clear
10:34 AM 19.4 °F 11.5 °F 10.4 °F 68% 29.98 in 10.0 mi SW 5.8 mph - N/A   Clear
10:54 AM 21.2 °F 12.6 °F 10.4 °F 63% 29.98 in 10.0 mi SW 6.9 mph - N/A   Clear
11:13 AM 21.2 °F 12.6 °F 10.4 °F 63% 29.98 in 10.0 mi SSW 6.9 mph - N/A   Clear
11:34 AM 23.0 °F 15.8 °F 12.2 °F 63% 29.97 in 10.0 mi SW 5.8 mph - N/A   Clear
11:54 AM 24.8 °F 17.9 °F 12.2 °F 59% 29.97 in 10.0 mi WSW 5.8 mph - N/A   Clear
12:14 PM 24.8 °F 16.1 °F 12.2 °F 59% 29.97 in 10.0 mi SW 8.1 mph - N/A   Clear
12:34 PM 24.8 °F 16.1 °F 12.2 °F 59% 29.96 in 10.0 mi WSW 8.1 mph - N/A   Clear
12:54 PM 26.6 °F 17.5 °F 14.0 °F 59% 29.96 in 10.0 mi SW 9.2 mph - N/A   Clear
1:14 PM 28.4 °F 20.4 °F 15.8 °F 59% 29.95 in 10.0 mi WSW 8.1 mph - N/A   Clear
1:34 PM 28.4 °F 20.4 °F 15.8 °F 59% 29.96 in 10.0 mi WSW 8.1 mph - N/A   Clear
1:54 PM 28.4 °F 20.4 °F 15.8 °F 59% 29.96 in 10.0 mi WSW 8.1 mph - N/A   Clear
2:14 PM 28.4 °F 19.7 °F 15.8 °F 59% 29.96 in 10.0 mi SW 9.2 mph - N/A   Clear
2:34 PM 28.4 °F 19.7 °F 17.6 °F 64% 29.95 in 10.0 mi SW 9.2 mph - N/A   Clear
2:54 PM 28.4 °F 21.2 °F 17.6 °F 64% 29.95 in 10.0 mi SW 6.9 mph - N/A   Clear
3:14 PM 28.4 °F 23.3 °F 17.6 °F 64% 29.94 in 10.0 mi SW 4.6 mph - N/A   Clear
3:34 PM 28.4 °F 21.2 °F 17.6 °F 64% 29.94 in 10.0 mi SW 6.9 mph - N/A   Clear
3:53 PM 28.4 °F 22.2 °F 17.6 °F 64% 29.94 in 10.0 mi SW 5.8 mph - N/A   Clear
4:14 PM 26.6 °F 22.6 °F 17.6 °F 69% 29.95 in 10.0 mi WSW 3.5 mph - N/A   Clear
4:34 PM 26.6 °F 21.2 °F 15.8 °F 64% 29.94 in 10.0 mi SSW 4.6 mph - N/A   Clear
4:53 PM 26.6 °F - 15.8 °F 64% 29.93 in 10.0 mi Calm Calm - N/A   Clear
5:14 PM 23.0 °F - 15.8 °F 74% 29.93 in 10.0 mi Calm Calm - N/A   Clear
5:34 PM 23.0 °F - 14.0 °F 68% 29.93 in 10.0 mi Calm Calm - N/A   Clear
5:54 PM 21.2 °F - 14.0 °F 74% 29.93 in 10.0 mi Calm Calm - N/A   Clear
6:14 PM 21.2 °F 16.4 °F 12.2 °F 68% 29.91 in 10.0 mi SSE 3.5 mph - N/A   Clear
6:34 PM 21.2 °F 14.9 °F 14.0 °F 74% 29.91 in 10.0 mi South 4.6 mph - N/A   Clear
6:53 PM 21.2 °F - 14.0 °F 74% 29.91 in 10.0 mi Calm Calm - N/A   Clear
7:14 PM 21.2 °F - 14.0 °F 74% 29.90 in 10.0 mi Calm Calm - N/A   Clear
7:34 PM 21.2 °F - 14.0 °F 74% 29.89 in 10.0 mi Calm Calm - N/A   Clear
7:53 PM 19.4 °F 12.8 °F 12.2 °F 74% 29.88 in 10.0 mi SSE 4.6 mph - N/A   Clear
8:14 PM 19.4 °F 12.8 °F 12.2 °F 74% 29.87 in 10.0 mi SSE 4.6 mph - N/A   Clear
8:34 PM 19.4 °F 12.8 °F 14.0 °F 80% 29.86 in 10.0 mi SSE 4.6 mph - N/A   Clear
8:53 PM 19.4 °F 10.4 °F 15.8 °F 86% 29.85 in 10.0 mi SSE 6.9 mph - N/A   Clear
9:14 PM 23.0 °F 13.1 °F 17.6 °F 80% 29.83 in 10.0 mi SSE 9.2 mph - N/A   Clear
9:34 PM 24.8 °F 16.1 °F 17.6 °F 74% 29.81 in 10.0 mi SSE 8.1 mph - N/A   Clear
9:53 PM 24.8 °F 16.1 °F 17.6 °F 74% 29.80 in 10.0 mi SSE 8.1 mph - N/A   Clear
10:14 PM 23.0 °F 15.8 °F 17.6 °F 80% 29.78 in 10.0 mi SE 5.8 mph - N/A   Clear
10:34 PM 23.0 °F 18.4 °F 17.6 °F 80% 29.78 in 10.0 mi SSE 3.5 mph - N/A   Clear
10:54 PM 24.8 °F 20.5 °F 17.6 °F 74% 29.78 in 10.0 mi South 3.5 mph - N/A   Clear
11:14 PM 24.8 °F 17.9 °F 17.6 °F 74% 29.77 in 10.0 mi SSE 5.8 mph - N/A   Clear
11:33 PM 23.0 °F 17.0 °F 17.6 °F 80% 29.77 in 10.0 mi SSE 4.6 mph - N/A   Clear
11:54 PM 23.0 °F - 17.6 °F 80% 29.76 in 10.0 mi Calm Calm - N/A   Clear